Location: McFarlands Corners
(41.4117°N, 81.3382°W)
Time: 13:07:28
(UTC+00:00)

A-11 Canister half - Pass Details

Date: 16 February 2026
Orbit: 1525 x 1683 km, 47.3° (Epoch: 11 March)

Event Time Altitude Azimuth Distance (km) Brightness Sun altitude
Rises 04:14:03 0° 297° (WNW) 4,678 12.0 -55.5°
Reaches altitude 10° 04:17:05 10° 295° (WNW) 3,698 11.3 -55.8°
Enters shadow 04:19:01 18° 294° (WNW) 3,096 10.8 -56.0°
Maximum altitude 04:26:21 72° 214° (SSW) 1,613 - -56.8°
Drops below altitude 10° 04:35:49 10° 132° (SE) 3,775 - -57.8°
Sets 04:38:56 0° 130° (SE) 4,780 - -58.1°
